sat.trackr.live / text

‹ back to catalog

STARLINK-32252

NORAD 60442 · 2024-144T

PAYLOAD ACTIVE UNKNOWN

§ Identity

Operator
Country
US
Launch date
2024-08-12
Launch site
AFETR
Launch vehicle
Mass (kg)
RCS (m²)

Purposes: comms

External: N2YO · Heavens-Above · Gunter

§ Orbital elements

Epoch: 2026-05-24T21:55:36.323040Z

Period
93.85 min
Inclination
53.1597°
Eccentricity
0.0000491
Mean motion
15.34396731 rev/d
Perigee alt
462.4 km
Apogee alt
463.0 km
Semi-major
6,840.8 km
B*
-6.5405e-5
RAAN
222.0659°
Arg perigee
145.0292°
Mean anomaly
215.0743°
Rev number
10,103

§ Raw data

STARLINK-322521 60442U 24144T   26144.91361485 -.00002584  00000+0 -65405-4 0  99992 60442  53.1597 222.0659 0000491 145.0292 215.0743 15.34396731101030

JSON: /api/v1/satellites/60442 · /tle

For live sub-satellite position, see the globe view (requires WebGL).

§ Visibility from observer

Set your observer location to see the next 7 days of passes ≥ 10°. The values pass through the URL so the page stays shareable.

No JS? Fill the form by hand. The geolocation button needs JavaScript.